When you browse on this site, cookies collect data to enhance your experience and personalize the content and advertising you see.
Visit our Privacy Policy to learn more. By continuing to use the site, you agree to this use of cookies and data.
  • In Latvia
  • List of Countries
  • For 7 days
  • Water Temperature
  • Weather Map
  • Weather Widgets
  • user-avatar
    Login

    Hourly Weather Konstantyna

    Today, 23 February, Sunday

    Time Temperature Precipitation Wind Pressure Humidity
    00:00 +6°C° 0 mm 1 mps 720 mmHg 94%
    01:00 +6°C° 0 mm 1 mps 719 mmHg 93%
    02:00 +6°C° 0 mm 1 mps 719 mmHg 91%
    03:00 +5°C° 0 mm 0 mps 719 mmHg 90%
    04:00 +5°C° 0 mm 0 mps 719 mmHg 89%
    05:00 +4°C° 0 mm 0 mps 719 mmHg 87%
    06:00 +5°C° 0 mm 1 mps 719 mmHg 86%
    07:00 +8°C° 0 mm 1 mps 720 mmHg 74%
    08:00 +10°C° 0 mm 1 mps 721 mmHg 63%
    09:00 +13°C° 0 mm 1 mps 721 mmHg 51%
    10:00 +15°C° 0 mm 1 mps 721 mmHg 45%
    11:00 +16°C° 0 mm 1 mps 721 mmHg 38%
    12:00 +18°C° 0 mm 2 mps 721 mmHg 31%
    13:00 +18°C° 0 mm 2 mps 721 mmHg 33%
    14:00 +18°C° 0 mm 2 mps 720 mmHg 34%
    15:00 +18°C° 0 mm 2 mps 720 mmHg 36%
    16:00 +16°C° 0 mm 2 mps 720 mmHg 47%
    17:00 +13°C° 0 mm 1 mps 719 mmHg 59%
    18:00 +10°C° 0 mm 1 mps 719 mmHg 71%
    19:00 +10°C° 0 mm 1 mps 719 mmHg 73%
    20:00 +8°C° 0 mm 0 mps 719 mmHg 76%
    21:00 +8°C° 0 mm 0 mps 719 mmHg 79%
    22:00 +8°C° 0 mm 0 mps 719 mmHg 77%
    23:00 +7°C° 0 mm 0 mps 718 mmHg 75%

    Tomorrow, 24 February, Monday

    Time Temperature Precipitation Wind Pressure Humidity
    00:00 +7°C° 0 mm 0 mps 718 mmHg 73%
    01:00 +8°C° 0 mm 1 mps 718 mmHg 72%
    02:00 +8°C° 0 mm 1 mps 717 mmHg 70%
    03:00 +8°C° 0 mm 1 mps 717 mmHg 69%
    04:00 +8°C° 0 mm 1 mps 717 mmHg 68%
    05:00 +8°C° 0 mm 1 mps 716 mmHg 67%
    06:00 +8°C° 0 mm 1 mps 716 mmHg 66%
    07:00 +11°C° 0 mm 1 mps 717 mmHg 58%
    08:00 +13°C° 0 mm 1 mps 717 mmHg 50%
    09:00 +16°C° 0 mm 1 mps 718 mmHg 41%
    10:00 +18°C° 0 mm 1 mps 718 mmHg 37%
    11:00 +20°C° 0 mm 1 mps 717 mmHg 33%
    12:00 +21°C° 0 mm 1 mps 717 mmHg 29%
    13:00 +21°C° 0 mm 1 mps 717 mmHg 30%
    14:00 +21°C° 0 mm 1 mps 716 mmHg 31%
    15:00 +20°C° 0 mm 2 mps 716 mmHg 32%
    16:00 +19°C° 0 mm 1 mps 715 mmHg 42%
    17:00 +15°C° 0 mm 1 mps 715 mmHg 51%
    18:00 +13°C° 0 mm 1 mps 714 mmHg 61%
    19:00 +12°C° 0 mm 1 mps 714 mmHg 62%
    20:00 +12°C° 0 mm 1 mps 714 mmHg 63%
    21:00 +11°C° 0 mm 1 mps 714 mmHg 64%
    22:00 +11°C° 0 mm 1 mps 714 mmHg 62%
    23:00 +11°C° 0 mm 1 mps 714 mmHg 60%

    Day after tomorrow, 25 February, Tuesday

    Time Temperature Precipitation Wind Pressure Humidity
    00:00 +11°C° 0 mm 1 mps 713 mmHg 58%
    01:00 +11°C° 0 mm 1 mps 713 mmHg 56%
    02:00 +11°C° 0 mm 1 mps 712 mmHg 54%
    03:00 +11°C° 0 mm 1 mps 712 mmHg 52%
    04:00 +11°C° 0 mm 1 mps 712 mmHg 52%
    05:00 +9°C° 0 mm 2 mps 712 mmHg 52%
    06:00 +9°C° 0 mm 2 mps 711 mmHg 51%
    07:00 +13°C° 0 mm 2 mps 712 mmHg 47%
    08:00 +15°C° 0 mm 2 mps 712 mmHg 43%
    09:00 +18°C° 0 mm 2 mps 713 mmHg 38%
    10:00 +19°C° 0 mm 2 mps 713 mmHg 35%
    11:00 +20°C° 0 mm 3 mps 713 mmHg 32%
    12:00 +22°C° 0 mm 3 mps 712 mmHg 29%
    13:00 +21°C° 0 mm 3 mps 712 mmHg 31%
    14:00 +21°C° 0 mm 4 mps 711 mmHg 33%
    15:00 +21°C° 0 mm 4 mps 711 mmHg 34%
    16:00 +18°C° 0 mm 3 mps 710 mmHg 47%
    17:00 +15°C° 0 mm 2 mps 710 mmHg 59%
    18:00 +13°C° 0 mm 1 mps 710 mmHg 72%
    19:00 +12°C° 0 mm 1 mps 710 mmHg 74%
    20:00 +11°C° 0 mm 1 mps 710 mmHg 76%
    21:00 +11°C° 0 mm 1 mps 710 mmHg 78%
    22:00 +10°C° 0 mm 1 mps 710 mmHg 78%
    23:00 +10°C° 0 mm 1 mps 709 mmHg 79%

    26 February, Wednesday

    Time Temperature Precipitation Wind Pressure Humidity
    00:00 +10°C° 0 mm 1 mps 709 mmHg 79%
    01:00 +9°C° 0 mm 1 mps 709 mmHg 79%
    02:00 +9°C° 0 mm 1 mps 709 mmHg 80%
    03:00 +9°C° 0 mm 1 mps 708 mmHg 80%
    04:00 +9°C° 0 mm 1 mps 708 mmHg 79%
    05:00 +8°C° 0 mm 1 mps 708 mmHg 79%
    06:00 +8°C° 0 mm 1 mps 708 mmHg 79%
    07:00 +9°C° 0 mm 2 mps 709 mmHg 71%
    08:00 +12°C° 0 mm 2 mps 709 mmHg 63%
    09:00 +13°C° 0 mm 3 mps 710 mmHg 56%
    10:00 +14°C° 0 mm 3 mps 710 mmHg 53%
    11:00 +15°C° 0 mm 4 mps 710 mmHg 50%
    12:00 +16°C° 0 mm 5 mps 710 mmHg 47%
    13:00 +16°C° 0 mm 6 mps 710 mmHg 50%
    14:00 +15°C° 0 mm 7 mps 709 mmHg 53%
    15:00 +15°C° 0 mm 8 mps 709 mmHg 56%
    16:00 +12°C° 0 mm 7 mps 709 mmHg 66%
    17:00 +10°C° 0 mm 5 mps 709 mmHg 75%
    18:00 +8°C° 0 mm 4 mps 709 mmHg 85%
    19:00 +7°C° 0 mm 4 mps 710 mmHg 85%
    20:00 +7°C° 0 mm 4 mps 710 mmHg 84%
    21:00 +6°C° 0 mm 4 mps 711 mmHg 83%
    22:00 +7°C° 0 mm 3 mps 711 mmHg 85%
    23:00 +5°C° 0 mm 3 mps 711 mmHg 87%

    27 February, Thursday

    Time Temperature Precipitation Wind Pressure Humidity
    00:00 +5°C° 0 mm 3 mps 711 mmHg 89%
    01:00 +5°C° 0.1 mm 3 mps 711 mmHg 90%
    02:00 +6°C° 0.1 mm 2 mps 711 mmHg 92%
    03:00 +5°C° 0.1 mm 2 mps 711 mmHg 93%
    04:00 +5°C° 0.1 mm 2 mps 712 mmHg 93%
    05:00 +6°C° 0.1 mm 1 mps 712 mmHg 93%
    06:00 +6°C° 0.1 mm 1 mps 712 mmHg 93%
    07:00 +6°C° 0.1 mm 2 mps 713 mmHg 85%
    08:00 +7°C° 0.1 mm 3 mps 714 mmHg 77%
    09:00 +9°C° 0.1 mm 3 mps 715 mmHg 70%
    10:00 +9°C° 0.1 mm 3 mps 715 mmHg 68%
    11:00 +10°C° 0.1 mm 3 mps 715 mmHg 65%
    12:00 +10°C° 0.1 mm 3 mps 715 mmHg 63%
    13:00 +11°C° 0 mm 3 mps 715 mmHg 63%
    14:00 +11°C° 0 mm 3 mps 714 mmHg 62%
    15:00 +11°C° 0 mm 3 mps 714 mmHg 62%
    16:00 +9°C° 0 mm 2 mps 714 mmHg 70%
    17:00 +8°C° 0 mm 2 mps 714 mmHg 77%
    18:00 +7°C° 0 mm 1 mps 714 mmHg 85%
    19:00 +7°C° 0 mm 1 mps 715 mmHg 87%
    20:00 +6°C° 0 mm 1 mps 715 mmHg 90%
    21:00 +6°C° 0 mm 1 mps 715 mmHg 92%
    22:00 +5°C° 0 mm 1 mps 715 mmHg 92%
    23:00 +5°C° 0 mm 1 mps 715 mmHg 92%

    28 February, Friday

    Time Temperature Precipitation Wind Pressure Humidity
    00:00 +5°C° 0 mm 1 mps 715 mmHg 91%
    01:00 +5°C° 0 mm 1 mps 714 mmHg 91%
    02:00 +5°C° 0 mm 1 mps 714 mmHg 90%
    03:00 +5°C° 0 mm 1 mps 714 mmHg 89%
    04:00 +5°C° 0 mm 1 mps 714 mmHg 87%
    05:00 +5°C° 0 mm 1 mps 714 mmHg 85%
    06:00 +5°C° 0 mm 1 mps 714 mmHg 83%
    07:00 +7°C° 0 mm 2 mps 714 mmHg 72%
    08:00 +10°C° 0 mm 2 mps 715 mmHg 61%
    09:00 +13°C° 0 mm 3 mps 715 mmHg 49%
    10:00 +14°C° 0 mm 3 mps 715 mmHg 45%
    11:00 +17°C° 0 mm 4 mps 715 mmHg 40%
    12:00 +19°C° 0 mm 4 mps 715 mmHg 36%
    13:00 +19°C° 0 mm 4 mps 714 mmHg 36%
    14:00 +19°C° 0 mm 4 mps 714 mmHg 37%
    15:00 +20°C° 0 mm 4 mps 713 mmHg 37%
    16:00 +17°C° 0 mm 4 mps 713 mmHg 41%
    17:00 +14°C° 0 mm 3 mps 712 mmHg 45%
    18:00 +12°C° 0 mm 3 mps 712 mmHg 50%
    19:00 +11°C° 0 mm 3 mps 712 mmHg 50%
    20:00 +11°C° 0 mm 3 mps 712 mmHg 51%
    21:00 +10°C° 0 mm 3 mps 712 mmHg 52%
    22:00 +10°C° 0 mm 3 mps 712 mmHg 52%
    23:00 +10°C° 0 mm 3 mps 711 mmHg 52%
    Show more